Location: Golden Pond Observatory
(36.7667°N, 88.0167°W)
Time: 19:05:38
(UTC-06:00)

Tiangong 1 - Visible Passes

Search period start: 18 November 2017 00:00
Search period end: 28 November 2017 00:00
Orbit: 285 x 309 km, 42.8° (Epoch: 18 November)

Date Brightness Start Highest point End Pass type
(mag) Time Alt. Az. Time Alt. Az. Time Alt. Az.
22 Nov 2.9 18:01:39 10° S 18:02:49 16° SSE 18:02:49 16° SSE visible
23 Nov 1.9 18:07:38 10° SW 18:09:30 32° S 18:09:30 32° S visible
24 Nov 1.6 18:14:04 10° WSW 18:16:00 45° WSW 18:16:00 45° WSW visible
25 Nov 2.4 18:20:42 10° W 18:22:19 30° WNW 18:22:19 30° WNW visible
26 Nov 3.2 18:27:23 10° WNW 18:28:28 19° WNW 18:28:28 19° WNW visible
27 Nov 3.7 18:34:01 10° WNW 18:34:28 13° NW 18:34:28 13° NW visible
